OpenBCM V1.13 (Linux)

Packet Radio Mailbox

DB0FHN

[JN59NK Nuernberg]

 Login: GUEST





  
LU1HVK > KEPLER   27.09.19 08:34l 244 Lines 12026 Bytes #999 (0) @ WW
BID : 32475_LU1HVK
Read: DJ6UX DF7EAV GUEST
Subj: TLE 27 09
Path: DB0FHN<DB0BLO<DB0ERF<IZ3LSV<IR1UAW<IK1NHL<IW2OHX<I0BLC<GB7CIP<N3HYM<
      OK2PEN<VE2PKT<LU3WAM<LU9HGS<LU1HVK
Sent: 190927/0523Z 32475@LU1HVK.2594.CBA.ARG.SA LinBPQ6.0.18

                         _    _   _ _ _   ___     ___  __
                        | |  | | | / | | | \ \   / / |/ /
                        | |  | | | | | |_| |\ \ / /| ' /
                        | |__| |_| | |  _  | \ V / | . \
                        |_____\___/|_|_| |_|  \_/  |_|\_\

     BBS/NODO - CORDOBA (LEONES-FF87UH) - LU1HVK-4 NODO - LU1HVK-3 APRS

+----------------------------------------------------------------------------+
OSCAR 7
1  7530U 74089B   19269.84948697 -.00000030 +00000-0 +96219-4 0  9990
2  7530 101.7564 236.5250 0012183 152.1272 236.0157 12.53640085052835
OSCAR 11 (UoSAT 2)
1 14781U 84021B   19269.62010988 +.00000061 +00000-0 +13627-4 0  9997
2 14781 097.6067 289.5864 0008408 002.1930 357.9320 14.83107977892572
OSCAR 19 (LUSAT)
1 20442U 90005G   19269.73115670 -.00000023 +00000-0 +79863-5 0  9997
2 20442 098.6554 211.5952 0011082 210.1551 149.8996 14.32933264550646
EYESAT A
1 22825U 93061C   19269.76195907 -.00000008 +00000-0 +14871-4 0  9993
2 22825 098.9115 260.7190 0009449 070.0922 290.1277 14.30067006355980
ITAMSAT
1 22826U 93061D   19269.53045464 +.00000000 +00000-0 +17872-4 0  9996
2 22826 098.9055 260.4610 0009896 060.3925 299.8241 14.30401042356170
RADIO ROSTO
1 23439U 94085A   19269.73628174 -.00000046 +00000-0 -94489-4 0  9992
2 23439 064.8168 314.3418 0145360 093.7779 267.9778 11.27568139019178
JAS 2
1 24278U 96046B   19269.59635231 -.00000017  00000-0  20636-4 0  9999
2 24278  98.5528  49.5141 0349994 341.1817  17.6649 13.53093483141311
TECHSAT 1B
1 25397U 98043D   19269.83996093 -.00000017 +00000-0 +11997-4 0  9994
2 25397 098.6947 208.7974 0002369 097.1927 262.9521 14.23671040101909
ISS (ZARYA)
1 25544U 98067A   19270.15204861 -.00000245  00000-0  37622-5 0  9993
2 25544  51.6423 215.5894 0007532  89.4865 107.6756 15.50106213191078
PCSAT
1 26931U 01043C   19269.75747511 -.00000009 +00000-0 +28517-4 0  9990
2 26931 067.0497 105.4612 0007429 270.2536 089.7713 14.30553283939215
SAUDISAT 1C
1 27607U 02058C   19269.71715464 -.00000011  00000-0  19365-4 0  9990
2 27607  64.5537 103.7794 0076352 237.1028 122.2712 14.75573472901799
CUTE-1
1 27844U 03031E   19269.69626859 +.00000051 +00000-0 +42499-4 0  9998
2 27844 098.6855 276.4187 0010975 100.6109 259.6305 14.22195980842467
CUBESAT XI 4
1 27848U 03031J   19269.50580726 +.00000040 +00000-0 +38081-4 0  9994
2 27848 098.6932 276.7519 0010797 111.7439 248.4889 14.21788940842297
MOZHAYETS 4
1 27939U 03042A   19269.71278855  .00000175  00000-0  39896-4 0  9991
2 27939  98.0542  43.6597 0014159 109.2514 251.0225 14.66805350855201
CUBESAT XI 5
1 28895U 05043F   19269.38511574 +.00000094 +00000-0 +26804-4 0  9992
2 28895 097.9736 048.7805 0017600 040.8499 319.4020 14.63692996741832
CUTE-1.7+APD II
1 32785U 08021C   19269.65811573 +.00000198 +00000-0 +27015-4 0  9996
2 32785 097.5551 264.6831 0011642 294.7619 065.2386 14.88348049618487
DELFI C3
1 32789U 08021G   19269.67880233  .00001491  00000-0  10309-3 0  9995
2 32789  97.4553 316.2855 0013366 138.5273 221.6972 15.07126984622026
SEEDS
1 32791U 08021J   19269.57505306 +.00000235 +00000-0 +29175-4 0  9999
2 32791 097.5312 270.6703 0011778 264.9913 094.9962 14.90873612618919
YUBELEINY
1 32953U 08025A   19269.68598644  .00000020  00000-0  75656-4 0  9999
2 32953  82.4987  82.5745 0018673 272.1179  87.7759 12.43091154514730
PRISM (HITOMI)
1 33493U 09002B   19269.74431304 +.00001060 +00000-0 +98205-4 0  9991
2 33493 098.1209 194.4918 0014205 206.7094 153.3396 14.96739008580100
KKS-1 (KISEKI)
1 33499U 09002H   19269.83961983 +.00000097 +00000-0 +22365-4 0  9991
2 33499 098.3435 111.7142 0007958 245.0319 115.0063 14.75464123573561
SWISSCUBE
1 35932U 09051B   19269.70363307  .00000121  00000-0  38396-4 0  9990
2 35932  98.5977  78.6636 0006982 211.5788 148.4991 14.56311797531337
BEESAT
1 35933U 09051C   19269.42578814 +.00000101 +00000-0 +33775-4 0  9995
2 35933 098.5996 080.1777 0004964 225.1176 134.9618 14.56397424531329
ITUPSAT 1
1 35935U 09051E   19269.47233508  .00000084  00000-0  30476-4 0  9995
2 35935  98.6105  80.4559 0007291 224.8914 135.1693 14.55553635531151
XIWANG-1 (HOPE-1)
1 36122U 09072B   19269.68186224 -.00000048 +00000-0 -16038-4 0  9992
2 36122 100.0770 267.3755 0007820 110.7853 249.4068 13.16350986470037
TISAT 1
1 36799U 10035E   19269.66758379 +.00000309 +00000-0 +37239-4 0  9991
2 36799 098.1687 065.2160 0013495 115.9189 244.3421 14.91161047499467
JUGNU
1 37839U 11058B   19269.83908816 +.00000296 +00000-0 +16250-4 0  9990
2 37839 019.9613 087.4659 0018984 351.3208 138.5115 14.12659124411322
SRMSAT
1 37841U 11058D   19269.73374719 +.00000306 +00000-0 +22662-4 0  9997
2 37841 019.9713 146.9509 0011868 215.1809 196.6783 14.10639562410742
M-CUBED/EXP-1 PRIME
1 37855U 11061F   19269.75346122 +.00000861 +00000-0 +50780-4 0  9993
2 37855 101.7130 216.7147 0173053 140.0789 221.3299 15.05592627431366
HORYU 2
1 38340U 12025D   19269.65351390 +.00000151 +00000-0 +30048-4 0  9993
2 38340 098.3205 311.1983 0011996 159.9192 200.2490 14.75751399385492
STRAND 1
1 39090U 13009E   19269.55836373  .00000043  00000-0  30275-4 0  9999
2 39090  98.4794 113.8018 0009186 359.7634   0.3545 14.35098093344715
SOMP
1 39134U 13015E   19269.81174212 +.00001282 +00000-0 +67235-4 0  9993
2 39134 064.8635 056.0240 0035835 287.5620 072.1593 15.20337611355431
BEESAT 3
1 39135U 13015F   19269.71456526 +.00000802 +00000-0 +49141-4 0  9997
2 39135 064.8679 076.0568 0034366 296.6932 063.0677 15.17610954355038
BEESAT 2
1 39136U 13015G   19269.72374951 +.00000752 +00000-0 +47620-4 0  9994
2 39136 064.8686 080.1358 0026095 302.2479 057.6118 15.17030718354953
CUBEBUG 1
1 39153U 13018D   19269.71714026  .00000166  00000-0  28550-4 0  9996
2 39153  97.9808   7.2935 0015888 231.3216 128.6575 14.80597906346611
ZACUBE
1 39417U 13066B   19269.69014970 +.00000207 +00000-0 +32221-4 0  9996
2 39417 097.5628 277.5728 0060340 066.7900 293.9652 14.81151085315843
TRITON 1
1 39427U 13066M   19269.72992549 +.00000156 +00000-0 +33016-4 0  9994
2 39427 097.6879 240.9865 0113065 204.5448 155.0351 14.67881629312828
GOMX 1
1 39430U 13066Q   19269.73268113  .00000143  00000-0  35309-4 0  9995
2 39430  97.7565 219.7423 0150265 299.2852  59.3402 14.59288021311192
HUMSAT D
1 39433U 13066T   19269.66111701 +.00000479 +00000-0 +51951-4 0  9993
2 39433 097.5445 313.0330 0029835 329.6252 030.3238 14.92254282316803
CUBEBUG 2
1 39440U 13066AA  19269.54997897 +.00000182 +00000-0 +32055-4 0  9991
2 39440 097.6084 262.1210 0081525 120.0193 240.9139 14.75888265313501
FUNCUBE 1
1 39444U 13066AE  19269.56777120 +.00000244 +00000-0 +36231-4 0  9991
2 39444 097.5603 279.4976 0059414 060.7584 299.9553 14.81977328314137
UWE-3
1 39446U 13066AG  19269.72150422 +.00000185 +00000-0 +31057-4 0  9996
2 39446 097.5849 269.4064 0071569 093.5613 267.3788 14.78423465313457
SPROUT
1 39770U 14029E   19269.73452813  .00000649  00000-0  77814-4 0  9992
2 39770  97.8879  12.4038 0009758 114.1117 246.1165 14.87432268289705
UNISAT 6
1 40012U 14033C   19269.60134156 +.00000166 +00000-0 +31912-4 0  9994
2 40012 097.7431 131.8404 0059249 134.4562 226.1516 14.74009344283401
DUCHIFAT 1
1 40021U 14033M   19269.76297564 +.00000316 +00000-0 +38083-4 0  9997
2 40021 097.9233 194.6873 0014384 080.5996 279.6847 14.90686956286459
QB50P1
1 40025U 14033R   19269.76418532 +.00000202 +00000-0 +27443-4 0  9993
2 40025 097.9031 189.2758 0013932 089.9010 270.3804 14.88985694285705
CHUBUSAT 1
1 40300U 14070C   19269.78675448  .00000548  00000-0  26742-4 0  9997
2 40300  97.3191 341.4055 0021293  64.4858  51.5659 15.22177830271246
NUDT-PHONESAT
1 40900U 15049B   19269.71972604  .00001430  00000-0  63623-4 0  9997
2 40900  97.4387 278.0888 0012280 187.0061 299.7348 15.23059837222887
ZDPS 2A
1 40901U 15049C   19269.75446899 +.00000565 +00000-0 +31206-4 0  9994
2 40901 097.4624 274.1449 0012357 209.1062 237.9205 15.17840127222412
ZDPS 2B
1 40902U 15049D   19269.72481600  .00000917  00000-0  48805-4 0  9995
2 40902  97.4572 271.5312 0012298 207.0005 239.9003 15.17695600222381
XW-2A
1 40903U 15049E   19269.72501515  .00001409  00000-0  34863-4 0  9990
2 40903  97.3292 313.0150 0014485 137.5372   2.8609 15.42111065225665
KAITUO 1A
1 40904U 15049F   19269.77339633  .00000327  00000-0  20795-4 0  9993
2 40904  97.4710 270.0870 0013372 217.1698 249.2116 15.15438049222158
OBJECT G
1 40905U 15049G   19269.72860757  .00000501  00000-0  30853-4 0  9995
2 40905  97.4761 267.4903 0014570 212.2947 264.6589 15.14348704222013
XW-2C
1 40906U 15049H   19269.74410130  .00000350  00000-0  21812-4 0  9991
2 40906  97.4716 270.1849 0013528 208.1954 206.8486 15.15756891222158
XW-2D
1 40907U 15049J   19269.71505227  .00000445  00000-0  26621-4 0  9999
2 40907  97.4696 269.8368 0013061 204.9804 242.2831 15.15952424222166
LILACSAT 2
1 40908U 15049K   19269.80318294 +.00000494 +00000-0 +30903-4 0  9998
2 40908 097.4834 268.6425 0014635 213.3290 249.1037 15.13853687221952
XW-2F
1 40910U 15049M   19269.78622977  .00000624  00000-0  34491-4 0  9995
2 40910  97.4661 272.0546 0014219 195.8911 289.1789 15.17427418222196
XW-2B
1 40911U 15049N   19269.75745753  .00000358  00000-0  22155-4 0  9999
2 40911  97.4716 270.5449 0012908 205.6501 269.4097 15.15879866222066
KAITUO 1B
1 40912U 15049P   19269.72952521  .00000771  00000-0  39203-4 0  9991
2 40912  97.4518 275.7970 0014740 177.0467 302.6112 15.19755237222508
TIANWANG 1C (TW-1C)
1 40926U 15051B   19269.81746896 +.00010757 +00000-0 +14760-3 0  9990
2 40926 097.1267 315.9188 0007844 013.6905 107.0895 15.57481613225737
TIANWANG 1B (TW-1B)
1 40927U 15051C   19269.74744044  .00009974  00000-0  14580-3 0  9995
2 40927  97.1300 315.0151 0008399  26.1532  68.6237 15.55781049225565
